When you browse on this site, cookies collect data to enhance your experience and personalize the content and advertising you see.
Visit our Privacy Policy to learn more. By continuing to use the site, you agree to this use of cookies and data.
  • In Romania
  • List of Countries
  • For 7 days
  • Water Temperature
  • Satellite Maps
  • Weather Map
  • Weather Widgets
  • user-avatar
    Login

    Hourly Weather Umag

    Today, 26 June, Wednesday

    Time Temperature Precipitation Wind Pressure Humidity
    00:00 +25°C° 0 mm 3 mps 768 mmHg 77%
    01:00 +24°C° 0 mm 3 mps 767 mmHg 80%
    02:00 +24°C° 0 mm 3 mps 767 mmHg 80%
    03:00 +24°C° 0 mm 3 mps 767 mmHg 80%
    04:00 +24°C° 0 mm 3 mps 767 mmHg 81%
    05:00 +26°C° 0 mm 3 mps 767 mmHg 76%
    06:00 +27°C° 0 mm 3 mps 767 mmHg 72%
    07:00 +29°C° 0 mm 3 mps 767 mmHg 67%
    08:00 +31°C° 0 mm 3 mps 767 mmHg 58%
    09:00 +34°C° 0 mm 3 mps 767 mmHg 48%
    10:00 +36°C° 0 mm 3 mps 767 mmHg 39%
    11:00 +37°C° 0 mm 3 mps 767 mmHg 36%
    12:00 +38°C° 0 mm 3 mps 767 mmHg 34%
    13:00 +40°C° 0 mm 3 mps 767 mmHg 31%
    14:00 +39°C° 0 mm 3 mps 766 mmHg 33%
    15:00 +38°C° 0 mm 3 mps 766 mmHg 35%
    16:00 +38°C° 0 mm 3 mps 765 mmHg 37%
    17:00 +35°C° 0 mm 3 mps 765 mmHg 46%
    18:00 +32°C° 0 mm 2 mps 766 mmHg 55%
    19:00 +30°C° 0 mm 2 mps 766 mmHg 64%
    20:00 +29°C° 0 mm 2 mps 766 mmHg 64%
    21:00 +28°C° 0 mm 1 mps 766 mmHg 64%
    22:00 +27°C° 0 mm 1 mps 766 mmHg 64%
    23:00 +27°C° 0 mm 1 mps 766 mmHg 66%

    Tomorrow, 27 June, Thursday

    Time Temperature Precipitation Wind Pressure Humidity
    00:00 +27°C° 0 mm 1 mps 766 mmHg 67%
    01:00 +26°C° 0 mm 1 mps 766 mmHg 68%
    02:00 +26°C° 0 mm 1 mps 766 mmHg 67%
    03:00 +26°C° 0 mm 1 mps 765 mmHg 67%
    04:00 +26°C° 0 mm 1 mps 765 mmHg 66%
    05:00 +28°C° 0 mm 1 mps 765 mmHg 63%
    06:00 +29°C° 0 mm 1 mps 765 mmHg 61%
    07:00 +31°C° 0 mm 1 mps 764 mmHg 58%
    08:00 +33°C° 0 mm 1 mps 764 mmHg 51%
    09:00 +36°C° 0 mm 2 mps 764 mmHg 45%
    10:00 +38°C° 0 mm 2 mps 764 mmHg 38%
    11:00 +38°C° 0 mm 2 mps 763 mmHg 37%
    12:00 +38°C° 0 mm 3 mps 763 mmHg 37%
    13:00 +39°C° 0 mm 3 mps 762 mmHg 36%
    14:00 +38°C° 0 mm 3 mps 762 mmHg 37%
    15:00 +38°C° 0 mm 2 mps 762 mmHg 39%
    16:00 +37°C° 0 mm 2 mps 761 mmHg 40%
    17:00 +35°C° 0 mm 1 mps 761 mmHg 46%
    18:00 +33°C° 0 mm 1 mps 761 mmHg 52%
    19:00 +29°C° 0 mm 0 mps 761 mmHg 59%
    20:00 +28°C° 0 mm 0 mps 761 mmHg 59%
    21:00 +29°C° 0 mm 1 mps 761 mmHg 60%
    22:00 +28°C° 0 mm 1 mps 762 mmHg 61%
    23:00 +28°C° 0 mm 1 mps 762 mmHg 62%

    Day after tomorrow, 28 June, Friday

    Time Temperature Precipitation Wind Pressure Humidity
    00:00 +27°C° 0 mm 2 mps 762 mmHg 64%
    01:00 +27°C° 0 mm 3 mps 762 mmHg 65%
    02:00 +26°C° 0 mm 3 mps 762 mmHg 71%
    03:00 +26°C° 0 mm 4 mps 762 mmHg 76%
    04:00 +25°C° 0 mm 4 mps 762 mmHg 81%
    05:00 +25°C° 0 mm 4 mps 762 mmHg 74%
    06:00 +26°C° 0 mm 4 mps 762 mmHg 66%
    07:00 +26°C° 0 mm 5 mps 762 mmHg 59%
    08:00 +29°C° 0 mm 4 mps 762 mmHg 52%
    09:00 +32°C° 0 mm 4 mps 762 mmHg 46%
    10:00 +34°C° 0 mm 4 mps 762 mmHg 40%
    11:00 +35°C° 0 mm 4 mps 762 mmHg 39%
    12:00 +35°C° 0 mm 4 mps 762 mmHg 39%
    13:00 +36°C° 0 mm 4 mps 761 mmHg 38%
    14:00 +35°C° 0 mm 4 mps 761 mmHg 40%
    15:00 +35°C° 0 mm 3 mps 761 mmHg 41%
    16:00 +35°C° 0 mm 3 mps 761 mmHg 42%
    17:00 +32°C° 0 mm 2 mps 761 mmHg 49%
    18:00 +30°C° 0 mm 2 mps 762 mmHg 56%
    19:00 +29°C° 0 mm 2 mps 762 mmHg 63%
    20:00 +27°C° 0 mm 2 mps 762 mmHg 65%
    21:00 +26°C° 0 mm 3 mps 763 mmHg 66%
    22:00 +25°C° 0 mm 4 mps 764 mmHg 68%
    23:00 +23°C° 0 mm 4 mps 764 mmHg 68%

    29 June, Saturday

    Time Temperature Precipitation Wind Pressure Humidity
    00:00 +22°C° 0 mm 4 mps 764 mmHg 68%
    01:00 +22°C° 0 mm 5 mps 764 mmHg 68%
    02:00 +22°C° 0 mm 4 mps 764 mmHg 66%
    03:00 +21°C° 0 mm 4 mps 764 mmHg 64%
    04:00 +21°C° 0 mm 4 mps 764 mmHg 62%
    05:00 +22°C° 0 mm 4 mps 764 mmHg 60%
    06:00 +23°C° 0 mm 4 mps 764 mmHg 58%
    07:00 +25°C° 0 mm 4 mps 764 mmHg 56%
    08:00 +27°C° 0 mm 4 mps 764 mmHg 50%
    09:00 +29°C° 0 mm 3 mps 764 mmHg 44%
    10:00 +31°C° 0 mm 3 mps 764 mmHg 38%
    11:00 +33°C° 0 mm 3 mps 764 mmHg 37%
    12:00 +34°C° 0 mm 3 mps 763 mmHg 35%
    13:00 +34°C° 0 mm 4 mps 763 mmHg 34%
    14:00 +34°C° 0 mm 3 mps 763 mmHg 36%
    15:00 +33°C° 0 mm 3 mps 763 mmHg 39%
    16:00 +33°C° 0 mm 3 mps 763 mmHg 42%
    17:00 +30°C° 0 mm 3 mps 763 mmHg 49%
    18:00 +29°C° 0 mm 2 mps 763 mmHg 57%
    19:00 +27°C° 0 mm 2 mps 763 mmHg 65%
    20:00 +26°C° 0 mm 2 mps 764 mmHg 66%
    21:00 +25°C° 0 mm 1 mps 764 mmHg 67%
    22:00 +23°C° 0 mm 1 mps 764 mmHg 67%
    23:00 +23°C° 0 mm 2 mps 764 mmHg 68%

    30 June, Sunday

    Time Temperature Precipitation Wind Pressure Humidity
    00:00 +23°C° 0 mm 2 mps 764 mmHg 69%
    01:00 +21°C° 0 mm 2 mps 764 mmHg 70%
    02:00 +21°C° 0 mm 2 mps 764 mmHg 71%
    03:00 +20°C° 0 mm 2 mps 764 mmHg 73%
    04:00 +20°C° 0 mm 2 mps 764 mmHg 74%
    05:00 +23°C° 0 mm 2 mps 764 mmHg 69%
    06:00 +24°C° 0 mm 2 mps 764 mmHg 64%
    07:00 +26°C° 0 mm 2 mps 764 mmHg 59%
    08:00 +28°C° 0 mm 2 mps 764 mmHg 52%
    09:00 +31°C° 0 mm 2 mps 764 mmHg 45%
    10:00 +33°C° 0 mm 1 mps 764 mmHg 38%
    11:00 +34°C° 0 mm 2 mps 764 mmHg 38%
    12:00 +35°C° 0 mm 2 mps 764 mmHg 37%
    13:00 +35°C° 0 mm 2 mps 764 mmHg 36%
    14:00 +35°C° 0 mm 2 mps 763 mmHg 38%
    15:00 +34°C° 0 mm 2 mps 763 mmHg 40%
    16:00 +32°C° 0 mm 2 mps 763 mmHg 42%
    17:00 +31°C° 0 mm 2 mps 763 mmHg 50%
    18:00 +29°C° 0 mm 1 mps 763 mmHg 58%
    19:00 +27°C° 0 mm 1 mps 763 mmHg 66%
    20:00 +26°C° 0 mm 1 mps 763 mmHg 67%
    21:00 +25°C° 0 mm 1 mps 764 mmHg 68%
    22:00 +24°C° 0 mm 1 mps 764 mmHg 69%
    23:00 +24°C° 0 mm 1 mps 764 mmHg 70%

    1 July, Monday

    Time Temperature Precipitation Wind Pressure Humidity
    00:00 +24°C° 0 mm 1 mps 764 mmHg 71%
    01:00 +24°C° 0 mm 1 mps 764 mmHg 71%
    02:00 +24°C° 0 mm 1 mps 764 mmHg 72%
    03:00 +23°C° 0 mm 1 mps 764 mmHg 73%
    04:00 +23°C° 0 mm 1 mps 763 mmHg 74%
    05:00 +25°C° 0 mm 1 mps 763 mmHg 70%
    06:00 +26°C° 0 mm 1 mps 763 mmHg 65%
    07:00 +26°C° 0 mm 0 mps 763 mmHg 61%
    08:00 +30°C° 0 mm 1 mps 763 mmHg 56%
    09:00 +32°C° 0 mm 1 mps 763 mmHg 51%
    10:00 +34°C° 0 mm 1 mps 763 mmHg 46%
    11:00 +35°C° 0 mm 2 mps 762 mmHg 46%
    12:00 +35°C° 0 mm 2 mps 762 mmHg 47%
    13:00 +35°C° 0 mm 3 mps 762 mmHg 47%
    14:00 +34°C° 0 mm 3 mps 762 mmHg 48%
    15:00 +34°C° 0 mm 3 mps 761 mmHg 48%
    16:00 +34°C° 0 mm 3 mps 761 mmHg 49%
    17:00 +31°C° 0 mm 2 mps 761 mmHg 56%
    18:00 +30°C° 0 mm 2 mps 761 mmHg 64%
    19:00 +28°C° 0 mm 2 mps 762 mmHg 71%
    20:00 +27°C° 0 mm 2 mps 762 mmHg 76%
    21:00 +25°C° 0 mm 3 mps 762 mmHg 82%
    22:00 +24°C° 0 mm 3 mps 762 mmHg 87%
    23:00 +24°C° 0 mm 3 mps 762 mmHg 87%
    Show more